Location: ??
(35.5653°N, 139.6194°E)
Time: 12:32:09
(UTC+00:00)

NOSS 3-4 (C) - Pass Details

Date: 20 November 2019
Orbit: 907 x 1306 km, 63.4° (Epoch: 11 December)

Event Time Altitude Azimuth Distance (km) Brightness Sun altitude
Exits shadow 20:26:55 - 323° (NW) 3,328 5.8 -11.4°
Reaches altitude 10° 20:27:49 10° 322° (NW) 3,015 5.6 -11.2°
Maximum altitude 20:34:58 63° 243° (WSW) 1,335 4.0 -9.8°
Drops below altitude 10° 20:42:43 10° 165° (SSE) 3,253 6.7 -8.3°
Sets 20:45:38 0° 162° (SSE) 4,247 7.4 -7.8°
